This is the latest recevied weather packets stored in our database for station/object KE0FIN. If no packets are shown the sender has not sent any weather packets the latest 10 day(s).
| Time | Temp. | Humidity | Pressure | Rain* | Wind** | Luminosity | Snow |
|---|---|---|---|---|---|---|---|
| 1777579139 | 16.67° C | 56% | 1069.3 hPa | 0 mm | - | 123 W/m² | - |
| 1777578839 | 16.67° C | 56% | 1069.3 hPa | 0 mm | - | 131 W/m² | - |
| 1777578534 | 16.67° C | 56% | 1069.5 hPa | 0 mm | - | 131 W/m² | - |
| 1777578224 | 16.67° C | 56% | 1069.4 hPa | 0 mm | - | 90 W/m² | - |
| 1777577920 | 16.67° C | 55% | 1069.6 hPa | 0 mm | - | 73 W/m² | - |
| 1777577615 | 16.67° C | 54% | 1069.6 hPa | 0 mm | - | 120 W/m² | - |
| 1777577312 | 17.22° C | 53% | 1069.7 hPa | 0 mm | - | 157 W/m² | - |
| 1777577003 | 16.67° C | 54% | 1069.7 hPa | 0 mm | - | 149 W/m² | - |
| 1777576700 | 16.67° C | 54% | 1069.5 hPa | 0 mm | - | 131 W/m² | - |
| 1777576399 | 16.67° C | 53% | 1069.6 hPa | 0 mm | - | 113 W/m² | - |
| 1777576096 | 16.67° C | 54% | 1069.5 hPa | 0 mm | - | 115 W/m² | - |
| 1777575791 | 16.67° C | 53% | 1069.5 hPa | 0 mm | - | 125 W/m² | - |
| 1777575488 | 17.22° C | 50% | 1069.5 hPa | 0 mm | - | 116 W/m² | - |
| 1777575184 | 17.22° C | 50% | 1069.4 hPa | 0 mm | - | 85 W/m² | - |
| 1777574880 | 17.22° C | 50% | 1069.6 hPa | 0 mm | - | 90 W/m² | - |
| 1777574577 | 17.22° C | 50% | 1069.7 hPa | 0 mm | - | 108 W/m² | - |
| 1777574274 | 17.22° C | 49% | 1069.8 hPa | 0 mm | - | 83 W/m² | - |
| 1777573969 | 17.22° C | 49% | 1069.6 hPa | 0 mm | - | 88 W/m² | - |
| 1777573664 | 17.22° C | 48% | 1069.6 hPa | 0 mm | - | 162 W/m² | - |
| 1777573360 | 17.22° C | 47% | 1069.8 hPa | 0 mm | - | 210 W/m² | - |
| 1777573056 | 17.78° C | 46% | 1069.9 hPa | 0 mm | - | 237 W/m² | - |
| 1777572753 | 17.78° C | 46% | 1069.9 hPa | 0 mm | - | 231 W/m² | - |
| 1777572447 | 17.78° C | 47% | 1069.9 hPa | 0 mm | - | 209 W/m² | - |
| 1777572144 | 17.78° C | 47% | 1070 hPa | 0 mm | - | 243 W/m² | - |
| 1777571839 | 17.78° C | 48% | 1070.1 hPa | 0 mm | - | 287 W/m² | - |
* Rain latest hour (hover to see other rain measurements)
** Current wind speed in m/s (hover to see current wind gust speed)